Zurück zum Katalog

COSMOS 2605

AktivMilitärPO
NORAD 67679·PAYLOAD·🇷🇺 Russia

Gestartet Feb 5, 2026 von Plesetsk Cosmodrome

Loading…

Nächste Überflüge (nächste 24 Stunden)

TLE

AktuellSource: Space-Track

Epoche: Sep 14, 2026, 14:19 UTC

1 67679U 26023F   26257.59656094  .00008508  00000-0  32277-3 0  9999
2 67679  96.6125 311.4028 0020551 163.9272 196.2625 15.26855895 33638

Verfolge COSMOS 2605 in Echtzeit mit AllMySat

Download on the App Store